Regional Weather Roundup
Issued by NWS Sterling, VA

Home | Current Version | Previous Version | Text Only | Print | Product List | Glossary Off
Versions: 1 2 3 4 5 6 7 8 9 10 11 12 13 14 15 16 17 18 19 20 21 22 23 24 25 26 27 28

000
ASUS41 KLWX 261010
RWRLWX

REGIONAL WEATHER ROUNDUP
NATIONAL WEATHER SERVICE BALTIMORE MD/WASHINGTON DC
600 AM EDT TUE JUL 26 2016

Note: "FAIR" indicates few or no clouds below 12,000 feet
with no significant weather and/or obstructions to visibility.
 TC=TEMPERATURE CELSIUS

 * =Non NWS site. Station does not report precipitation (e.g. rain,
    snow, etc.), thunder, or fog.

DCZ001-MDZ009-015-VAZ040>042-051-053>054-261100-
WASHINGTON METRO

CITY           SKY/WX    TMP DP  RH WIND       PRES   REMARKS
WASHINGTON NAT MOCLDY    80  73  79 N6        29.93R
DULLES         CLOUDY    77  72  84 NW5       29.95R
ANDREWS AFB    CLOUDY    74  72  93 NW3       29.93R
FT BELVOIR     FAIR      75  73  94 CALM      29.93R FOG
COLLEGE PARK*  FAIR      73  72  94 CALM      29.93R
LEESBURG*      FAIR      77  73  88 W7        29.96R
MANASSAS*      FAIR      77  75  94 CALM      29.94R
GAITHERSBURG*  CLEAR     72  68  88 CALM      29.99R

$$

MDZ006>007-011-014-261100-
BALTIMORE METRO

CITY           SKY/WX    TMP DP  RH WIND       PRES   REMARKS
BWI AIRPORT    CLOUDY    74  70  87 NW3       29.92R
MD SCIENCE CTR   N/A     79  70  74 MISG      29.93R
MARTIN STATE   MOCLDY    75  73  94 W3        29.93R
ANNAPOLIS      PTCLDY    79  76  90 N5        29.91R
FORT MEADE*    CLOUDY    72  70  94 CALM      29.95R

$$

MDZ012-015-019>023-261100-
MARYLAND EASTERN SHORE

CITY           SKY/WX    TMP DP  RH WIND       PRES   REMARKS
OCEAN CITY     PTCLDY    76  74  93 NW3       29.90R
SALISBURY      PTCLDY    75  73  93 CALM      29.91R
BAY BRIDGE AP* PTCLDY    77  75  94 CALM      29.92R
CAMBRIDGE*     PTCLDY    72  72 100 CALM      29.91R
EASTON*        PTCLDY    76  76 100 CALM      29.95R

$$

MDZ017>025-261100-
SOUTHERN MARYLAND

CITY           SKY/WX    TMP DP  RH WIND       PRES   REMARKS
PATUXENT RIVER CLOUDY    78  75  90 NW6       29.91R
ST INIGOES     MOCLDY    82  78  88 CALM      29.90R HX  91
LEONARDTOWN*   MOCLDY    75  73  94 CALM      29.94R

$$

MDZ003>005-261100-
NORTH CENTRAL MARYLAND

CITY           SKY/WX    TMP DP  RH WIND       PRES   REMARKS
FREDERICK*     CLEAR     72  72 100 CALM      29.98R FOG
HAGERSTOWN APT CLOUDY    75  71  87 CALM      29.97R

$$

MDZ501>502-261100-
WESTERN MARYLAND

CITY           SKY/WX    TMP DP  RH WIND       PRES   REMARKS
OAKLAND*       PTCLDY    66  66 100 W7        30.11S FOG
CUMBERLAND*    NOT AVBL

$$

VAZ025>031-261100-
SHENANDOAH VALLEY

CITY           SKY/WX    TMP DP  RH WIND       PRES   REMARKS
WINCHESTER*    FAIR      73  70  88 CALM      29.97R
FRONT ROYAL*   FAIR      73  70  88 CALM      29.96R
LURAY*         PTSUNNY   73  73 100 CALM      29.99R
NEW MARKET*    FAIR     N/A N/A N/A S3        29.98S
STAUNTON*      FAIR      71  69  95 CALM      30.03S
WAYNESBORO*    FAIR      77  70  79 W6        30.03R

$$

WVZ021-048>050-054>055-261100-
EASTERN WEST VIRGINIA PANHANDLE

CITY           SKY/WX    TMP DP  RH WIND       PRES   REMARKS
MARTINSBURG    FAIR      74  69  85 CALM      29.96R
PETERSBURG*    MOCLDY    73  72  95 CALM      30.00S

$$

VAZ036>039-050-261100-
CENTRAL FOOTHILLS

CITY           SKY/WX    TMP DP  RH WIND       PRES   REMARKS
CHARLOTTESVILL FAIR      80  71  74 W5        29.96R
CULPEPER*      FAIR      75  75 100 CALM      29.96R FOG
ORANGE*          N/A     73  73 100 CALM      29.97R
GORDONSVILLE*  FAIR      73  72  99 NE5       29.95R
WARRENTON*     FAIR      74  69  84 CALM      29.94R

$$

VAZ055>057-261100-
NORTH AND CENTRAL PIEDMONT

CITY           SKY/WX    TMP DP  RH WIND       PRES   REMARKS
FREDERICKSBRG* FAIR      78  78 100 CALM      29.92R
STAFFORD*      FAIR      75  73  94 CALM      29.97R

$$

NCZ024-NYZ072-PAZ021-071-VAZ022-071-261100-
OTHER REGIONAL OBSERVATIONS

CITY           SKY/WX    TMP DP  RH WIND       PRES   REMARKS
NEW YORK CITY  CLEAR     72  68  87 NW3       29.92R
PHILADELPHIA   MOCLDY    75  71  87 W6        29.92R
PITTSBURGH     MOCLDY    71  67  87 SW3       30.01R
ROANOKE        FAIR      76  71  85 NW6       30.04R
RICHMOND       FAIR      79  73  82 SW6       29.94R
RALEIGH        PTCLDY    77  72  84 W6        30.01R

$$

ANZ530>537-261100-
MARINE OBSERVATIONS

STATION/POSITION TIME  TEMP    WIND        PRES
                       AIR SEA DIR/SP/G
                 (UTC) (F)     (DEG/KT/KT) (MB)
THOMAS PT LIGHT  1000   79 82  350/  6/  6 1014.5R
BALT KEY BRIDGE  0942   79     320/  4/  5 1013.0R
COVE POINT       0942   79     340/  9/ 11 1013.2R
LEWISETTA        0942   82 86  280/  9/ 10 1012.3R
SOLOMONS ISLAND  0942   80 85  310/  3/  6   N/A
PINEY POINT      0948          300/  8/  9   N/A

$$





USA.gov is the U.S. government's official web portal to all federal, state and local government web resources and services.